Hourly Data Report for October 06, 2014

All times are specified in Local Standard Time (LST). Add 1 hour to adjust for Daylight Saving Time where and when it is observed.

GRISE FIORD CLIMATE
NUNAVUT

76°25'22.040" N
82°54'08.020" W
44.50 m
2402351
71971
NGC

Download Data

Hourly Data (October 2014)
Hourly Data Report for October 6, 2014
Temp Definition
°C
Dew Point Temp Definition
°C
Rel Hum Definition
%
Wind Dir Definition
10's deg

Wind Spd Definition
km/h
Visibility Definition
km
Stn Press Definition
kPa
Hmdx Definition


Wind Chill Definition


Weather Definition


TIME
00:00 -7.7 -10.2 82 11 4   102.92   -10 LegendNANA
01:00 -6.4 -10.9 70 4 14   102.96   -12 LegendNANA
02:00 -6.1 -10.4 72 5 7   102.97   -9 LegendNANA
03:00 -6.2 -9.9 75 17 4   103.00   -8 LegendNANA
04:00 -5.5 -9.2 75 8 9   103.02   -10 LegendNANA
05:00 -5.3 -9.8 70 4 13   103.05   -10 LegendNANA
06:00 -6.9 -9.8 80 11 12   103.09   -12 LegendNANA
07:00 -6.3 -9.5 78 22 3   103.11   -8 LegendNANA
08:00 -6.6 -10.3 75 5 11   103.09   -12 LegendNANA
09:00 -5.8 -9.6 75 5 17   103.05   -12 LegendNANA
10:00 -5.7 -9.6 74 5 21   103.07   -13 LegendNANA
11:00 -5.3 -9.0 75 10 4   103.10   -7 LegendNANA
12:00 -4.7 -8.2 76 12 2   103.12   -6 LegendNANA
13:00 -4.8 -8.8 74 5 8   103.10   -8 LegendNANA
14:00 -4.4 -7.7 78 10 3   103.11   -6 LegendNANA
15:00 -4.5 -7.8 78 10 4   103.13   -6 LegendNANA
16:00 -5.8 -8.5 81 10 5   103.18   -8 LegendNANA
17:00 -6.8 -9.4 82 9 6   103.15   -10 LegendNANA
18:00 -7.6 -9.4 87 11 7   103.17   -11 LegendNANA
19:00 -6.9 -9.3 84 9 5   103.15   -9 LegendNANA
20:00 -6.6 -9.3 81 8 6   103.13   -10 LegendNANA
21:00 -6.9 -8.9 86 11 4   103.13   -9 LegendNANA
22:00 -7.1 -9.3 84 9 7   103.09   -11 LegendNANA
23:00 -7.7 -10.1 83 12 8   103.08   -12 LegendNANA

Notes on Data Quality.

Legend

  • E = Estimated
  • M = Missing
  • NA = Not Available
  • ‡ = Partner data that is not subject to review by the National Climate Archives
Date modified: